This demonstration page uses our WeatherBlox Daily Observations layout. Learn more.

Left ArrowRight Arrow

40.97296, -117.73568

Hourly Observations for March 14, 2016

Temp ( °F °C ) Dew Point ( °F °C ) Humidity (%) Winds ( mph kmh ) Pressure ( in mb ) Visibility ( mi km ) Precip ( " mm )
12:56 am 00:56 Clear 45 7.2 32 0 61 61 SW 29 46 29.71 1006 10 16 0.00 0.00
1:56 am 01:56 Clear 44 6.7 32 0 63 63 SW 20 31 29.72 1007 10 16 0.00 0.00
2:56 am 02:56 Clear 46 7.8 29 -1.7 51 51 SW 30 48 29.72 1007 10 16 0.00 0.00
3:56 am 03:56 Clear 45 7.2 29 -1.7 54 54 SW 17 28 29.72 1007 10 16 0.00 0.00
4:56 am 04:56 Mostly Clear 38 3.3 29 -1.7 70 70 W 10 17 29.76 1008 10 16 0.00 0.00
5:56 am 05:56 Mostly Clear 38 3.3 30 -1.1 73 73 W 12 19 29.81 1009 10 16 0.00 0.00
6:56 am 06:56 Clear 37 2.8 27 -2.8 67 67 WSW 9 15 29.84 1010 10 16 0.00 0.00
7:56 am 07:56 Mostly Sunny 40 4.4 25 -3.9 55 55 WSW 16 26 29.88 1012 10 16 0.00 0.00
8:56 am 08:56 Cloudy 41 5 28 -2.2 60 60 W 14 22 29.92 1013 10 16 0.00 0.00
9:56 am 09:56 Cloudy 40 4.4 30 -1.1 68 68 NW 12 19 29.97 1015 10 16 0.00 0.00
10:56 am 10:56 Mostly Cloudy 40 4.4 27 -2.8 60 60 W 7 11 30.01 1016 10 16 0.00 0.00
11:56 am 11:56 Partly Cloudy 46 7.8 23 -5 40 40 W 17 28 30.00 1016 10 16 0.00 0.00
12:56 pm 12:56 Partly Cloudy 47 8.3 20 -6.7 34 34 W 24 39 30.02 1017 10 16 0.00 0.00
1:56 pm 13:56 Mostly Cloudy 48 8.9 17 -8.3 29 29 W 23 37 30.02 1017 10 16 0.00 0.00
2:56 pm 14:56 Mostly Sunny 47 8.3 16 -8.9 29 29 W 24 39 30.01 1016 10 16 0.00 0.00
3:56 pm 15:56 Partly Cloudy 45 7.2 18 -7.8 34 34 W 14 22 30.04 1017 10 16 0.00 0.00
4:56 pm 16:56 Cloudy 46 7.8 20 -6.7 35 35 WNW 16 26 30.06 1018 10 16 0.00 0.00
5:56 pm 17:56 Cloudy 46 7.8 17 -8.3 31 31 W 21 33 30.07 1018 10 16 0.00 0.00
6:04 pm 18:04 Mostly Cloudy 45 7 18 -8 34 34 W 16 26 30.06 1018 10 16 0.00 0.00
6:56 pm 18:56 Cloudy 43 6.1 18 -7.8 37 37 W 13 20 30.10 1019 10 16 0.00 0.00
7:56 pm 19:56 Mostly Clear 35 1.7 19 -7.2 52 52 WSW 7 11 30.13 1020 10 16 0.00 0.00
8:56 pm 20:56 Clear 32 0 20 -6.7 61 61 WSW 6 9 30.15 1021 10 16 0.00 0.00
9:56 pm 21:56 Clear 30 -1.1 19 -7.2 64 64 W 10 17 30.18 1022 10 16 0.00 0.00
10:56 pm 22:56 Clear 34 1.1 21 -6.1 59 59 W 14 22 30.19 1022 10 16 0.00 0.00
11:56 pm 23:56 Clear 37 2.8 20 -6.7 50 50 W 13 20 30.17 1022 10 16 0.00 0.00

Powered by AerisWeather